[Date Prev][Date Next][Thread Prev][Thread Next] - [Date Index][Thread Index][Author Index]

2 Line ISS Keps 10-9



ISS 
1 25544U 98067A   04283.36382888  .00015706  00000-0  13856-3 0  8706
2 25544  51.6352 103.1126 0009521 203.3842 230.4706 15.68855848336256
----
Via the sarex mailing list at AMSAT.ORG courtesy of AMSAT-NA.
To unsubscribe, send "unsubscribe sarex" to Majordomo@amsat.org



AMSAT Top AMSAT Home